Location: Calvera
(42.3882°N, 0.6137°E)
Time: 18:55:11
(UTC+00:00)

CENTAUR R/B - Pass Details

Date: 28 October 2020
Orbit: 749 x 1439 km, 63.5° (Epoch: 22 November)

Event Time Altitude Azimuth Distance (km) Brightness Sun altitude
Exits shadow 05:37:23 11° 295° (WNW) 2,726 4.2 -9.6°
Maximum altitude 05:41:46 19° 338° (NNW) 2,319 4.2 -8.8°
Drops below altitude 10° 05:46:51 10° 22° (NNE) 3,119 5.3 -7.9°
Sets 05:50:50 0° 39° (NE) 4,219 6.2 -7.2°
